Shenandoah, IA

11:30 AM CST on February 27, 2017 (GMT -0600)
Shenandoah Municipal

Weather History for KSDA - December, 2012

Change the Weather History Date:

Thursday, December 20, 2012

  Actual Average Record
Temperature  
Mean Temperature 28 °F -  
Max Temperature 35 °F 33 °F 58 °F (1967)
Min Temperature 21 °F 15 °F -22 °F (1983)
Degree Days  
Heating Degree Days 37    
Moisture  
Dew Point 19 °F    
Average Humidity 74    
Maximum Humidity 87    
Minimum Humidity 63    
Precipitation  
Precipitation 0.06 in - - ()
Sea Level Pressure  
Sea Level Pressure 29.96 in    
Wind  
Wind Speed 23 mph (NW)    
Max Wind Speed 34 mph    
Max Gust Speed 46 mph    
Visibility 8 miles    
Events Snow    
Averages and records for this station are not official NWS values.
T = Trace of Precipitation, MM = Missing Value Source: NWS Daily Summary

Daily Weather History Graph

Daily Weather History Graph

Search for Another Location

Airport or City:

Trip Planner

Search our weather history database for the weather conditions in past years. The results will help you decide how hot, cold, wet, or windy it might be!

Date:

Astronomy

Dec. 20, 2012 Rise Set
Actual Time 7:42 AM CST 4:57 PM CST
Civil Twilight 7:11 AM CST 5:28 PM CST
Nautical Twilight 6:36 AM CST 6:02 PM CST
Astronomical Twilight 6:03 AM CST 6:36 PM CST
Moon 12:17 PM CST (12/20) 12:28 AM CST (12/20)
Length of Visible Light 10h 17m
Length of Day
9h 15m
First Quarter, 55% of the Moon is Illuminated
Dec 20
First Quarter
Dec 28
Full
Jan 4
Last Quarter
Jan 11
New
Jan 18
First Quarter

Hourly Weather History & Observations

Time (CST) Temp. Windchill Dew Point Humidity Pressure Visibility Wind Dir Wind Speed Gust Speed Precip Events Conditions
12:15 AM 35.6 °F 23.4 °F 30.2 °F 81% 29.67 in 0.8 mi North 25.3 mph 33.4 mph 0.01 in Snow Snow
12:35 AM 35.6 °F 23.0 °F 30.2 °F 81% 29.67 in 1.2 mi North 27.6 mph 35.7 mph 0.02 in Snow Light Snow
12:55 AM 33.8 °F 21.9 °F 28.4 °F 81% 29.67 in 1.2 mi North 21.9 mph 39.1 mph 0.02 in Snow Light Snow
1:15 AM 33.8 °F 19.9 °F 28.4 °F 81% 29.66 in 1.0 mi North 31.1 mph 41.4 mph N/A Snow Light Snow
1:35 AM 33.8 °F 19.2 °F 28.4 °F 81% 29.64 in 0.8 mi North 34.5 mph 42.6 mph N/A Snow Snow
1:55 AM 33.8 °F 20.1 °F 28.4 °F 81% 29.64 in 0.5 mi North 29.9 mph 40.3 mph 0.01 in Snow Snow
2:15 AM 33.8 °F 19.9 °F 28.4 °F 81% 29.64 in 0.5 mi North 31.1 mph 42.6 mph N/A Snow Snow
2:35 AM 32.0 °F 17.0 °F 28.4 °F 87% 29.64 in 0.8 mi North 33.4 mph 46.0 mph 0.01 in Snow Snow
2:55 AM 32.0 °F 17.2 °F 26.6 °F 80% 29.64 in 0.8 mi North 32.2 mph 41.4 mph 0.01 in Snow Snow
3:15 AM 30.2 °F 15.2 °F 26.6 °F 86% 29.65 in - North 29.9 mph 46.0 mph 0.01 in   Unknown
3:35 AM - - - N/A% 29.67 in - North 31.1 mph 38.0 mph N/A   Unknown
3:55 AM - - - N/A% 29.69 in - North 28.8 mph - N/A   Unknown
4:15 AM 28.4 °F 13.0 °F 24.8 °F 86% 29.71 in - North 28.8 mph 38.0 mph N/A   Overcast
4:35 AM 28.4 °F 14.1 °F 24.8 °F 86% 29.72 in - NNW 24.2 mph 40.3 mph N/A   Overcast
4:55 AM 28.4 °F 13.0 °F 23.0 °F 80% 29.73 in - NNW 28.8 mph 42.6 mph N/A   Overcast
5:15 AM 26.6 °F 12.0 °F 21.2 °F 80% 29.74 in - NNW 23.0 mph 33.4 mph N/A   Overcast
5:35 AM 26.6 °F 10.8 °F 21.2 °F 80% 29.75 in - NNW 27.6 mph 39.1 mph N/A   Overcast
5:55 AM 26.6 °F 11.4 °F 21.2 °F 80% 29.77 in - NNW 25.3 mph 44.9 mph 0.01 in   Overcast
6:15 AM 26.6 °F 10.0 °F 19.4 °F 74% 29.79 in - NNW 31.1 mph 40.3 mph N/A   Overcast
6:35 AM 26.6 °F 11.7 °F 19.4 °F 74% 29.80 in - NNW 24.2 mph 33.4 mph N/A   Overcast
6:55 AM 24.8 °F 7.9 °F 19.4 °F 80% 29.81 in - NNW 29.9 mph 35.7 mph N/A   Overcast
7:15 AM 24.8 °F 8.1 °F 19.4 °F 80% 29.83 in - NNW 28.8 mph 36.8 mph N/A   Overcast
7:35 AM 24.8 °F 7.3 °F 19.4 °F 80% 29.84 in - NNW 32.2 mph 39.1 mph N/A   Overcast
7:55 AM 24.8 °F 8.4 °F 17.6 °F 74% 29.86 in - NNW 27.6 mph 35.7 mph N/A   Overcast
8:15 AM 24.8 °F 7.9 °F 17.6 °F 74% 29.87 in - NNW 29.9 mph 40.3 mph N/A   Overcast
8:35 AM 24.8 °F 9.3 °F 17.6 °F 74% 29.89 in - NNW 24.2 mph 39.1 mph N/A   Overcast
8:55 AM 24.8 °F 8.1 °F 17.6 °F 74% 29.89 in - NNW 28.8 mph 38.0 mph N/A   Overcast
9:15 AM 24.8 °F 10.3 °F 17.6 °F 74% 29.91 in - NNW 20.7 mph 39.1 mph N/A   Overcast
9:35 AM 24.8 °F 10.7 °F 17.6 °F 74% 29.93 in - NNW 19.6 mph 38.0 mph N/A   Overcast
9:55 AM 24.8 °F 8.7 °F 17.6 °F 74% 29.94 in 7.0 mi NNW 26.5 mph 34.5 mph N/A   Overcast
10:15 AM 24.8 °F 11.5 °F 17.6 °F 74% 29.96 in 10.0 mi NW 17.3 mph 28.8 mph N/A   Overcast
10:35 AM 24.8 °F 10.3 °F 17.6 °F 74% 29.97 in 10.0 mi NNW 20.7 mph 34.5 mph N/A   Overcast
10:55 AM 24.8 °F 10.3 °F 17.6 °F 74% 29.98 in 10.0 mi NW 20.7 mph 31.1 mph N/A   Overcast
11:15 AM 26.6 °F 11.7 °F 19.4 °F 74% 29.98 in 10.0 mi NW 24.2 mph 36.8 mph N/A   Overcast
11:35 AM 26.6 °F 12.4 °F 19.4 °F 74% 29.99 in 10.0 mi NNW 21.9 mph 32.2 mph N/A   Overcast
11:55 AM 26.6 °F 12.4 °F 17.6 °F 69% 30.00 in 10.0 mi NNW 21.9 mph 31.1 mph N/A   Overcast
12:15 PM 26.6 °F 12.7 °F 17.6 °F 69% 30.00 in 10.0 mi NNW 20.7 mph 33.4 mph N/A   Overcast
12:35 PM 26.6 °F 14.7 °F 17.6 °F 69% 29.99 in 10.0 mi NW 15.0 mph 31.1 mph N/A   Overcast
12:55 PM 26.6 °F 13.8 °F 17.6 °F 69% 30.00 in 10.0 mi NW 17.3 mph 31.1 mph N/A   Scattered Clouds
1:15 PM 26.6 °F 13.8 °F 17.6 °F 69% 30.01 in 10.0 mi NNW 17.3 mph 26.5 mph N/A   Scattered Clouds
1:35 PM 26.6 °F 13.8 °F 17.6 °F 69% 30.02 in 10.0 mi NW 17.3 mph 27.6 mph N/A   Scattered Clouds
1:55 PM 28.4 °F 15.1 °F 17.6 °F 64% 30.02 in 10.0 mi NNW 20.7 mph 27.6 mph N/A   Scattered Clouds
2:15 PM 28.4 °F 16.2 °F 17.6 °F 64% 30.03 in 10.0 mi NW 17.3 mph 25.3 mph N/A   Scattered Clouds
2:35 PM 28.4 °F 16.2 °F 17.6 °F 64% 30.04 in 10.0 mi NW 17.3 mph 29.9 mph N/A   Clear
2:55 PM 26.6 °F 13.1 °F 17.6 °F 69% 30.05 in 10.0 mi NW 19.6 mph 28.8 mph N/A   Clear
3:15 PM 28.4 °F 16.6 °F 17.6 °F 64% 30.06 in 10.0 mi NW 16.1 mph 21.9 mph N/A   Clear
3:35 PM 26.6 °F 14.7 °F 17.6 °F 69% 30.07 in 10.0 mi NW 15.0 mph 25.3 mph N/A   Clear
3:55 PM 26.6 °F 13.4 °F 17.6 °F 69% 30.08 in 10.0 mi NW 18.4 mph 28.8 mph N/A   Clear
4:15 PM 26.6 °F 13.8 °F 17.6 °F 69% 30.09 in 10.0 mi NW 17.3 mph 29.9 mph N/A   Clear
4:35 PM 26.6 °F 14.3 °F 17.6 °F 69% 30.10 in 10.0 mi WNW 16.1 mph 20.7 mph N/A   Clear
4:55 PM 24.8 °F 13.4 °F 15.8 °F 69% 30.12 in 10.0 mi WNW 12.7 mph - N/A   Scattered Clouds
5:15 PM 24.8 °F 15.3 °F 15.8 °F 69% 30.13 in 10.0 mi WNW 9.2 mph - N/A   Scattered Clouds
5:35 PM 24.8 °F 17.9 °F 15.8 °F 69% 30.13 in 10.0 mi NW 5.8 mph - N/A   Scattered Clouds
5:55 PM 24.8 °F 16.9 °F 15.8 °F 69% 30.14 in 10.0 mi WNW 6.9 mph - N/A   Scattered Clouds
6:15 PM 23.0 °F 17.0 °F 15.8 °F 74% 30.14 in 10.0 mi NW 4.6 mph - N/A   Scattered Clouds
6:35 PM 24.8 °F 15.3 °F 15.8 °F 69% 30.15 in 10.0 mi NW 9.2 mph - N/A   Scattered Clouds
6:55 PM 23.0 °F 14.7 °F 15.8 °F 74% 30.16 in 10.0 mi WNW 6.9 mph - N/A   Scattered Clouds
7:15 PM 23.0 °F 18.4 °F 15.8 °F 74% 30.16 in 10.0 mi WNW 3.5 mph - N/A   Scattered Clouds
7:35 PM 21.2 °F 16.4 °F 15.8 °F 80% 30.16 in 10.0 mi WNW 3.5 mph - N/A   Scattered Clouds
7:55 PM 21.2 °F 14.9 °F 14.0 °F 74% 30.17 in 10.0 mi West 4.6 mph - N/A   Scattered Clouds
8:15 PM 21.2 °F 14.9 °F 14.0 °F 74% 30.17 in 10.0 mi WNW 4.6 mph - N/A   Scattered Clouds
8:35 PM 21.2 °F 11.7 °F 14.0 °F 74% 30.17 in 10.0 mi WNW 8.1 mph - N/A   Scattered Clouds
8:55 PM 21.2 °F 11.7 °F 14.0 °F 74% 30.17 in 10.0 mi WNW 8.1 mph - N/A   Scattered Clouds
9:15 PM 21.2 °F 11.7 °F 12.2 °F 68% 30.18 in 10.0 mi WNW 8.1 mph - N/A   Scattered Clouds
9:35 PM 21.2 °F 10.1 °F 14.0 °F 74% 30.18 in 10.0 mi WNW 10.4 mph - N/A   Scattered Clouds
9:55 PM 21.2 °F 10.1 °F 14.0 °F 74% 30.18 in 10.0 mi WNW 10.4 mph - N/A   Scattered Clouds
10:15 PM 21.2 °F 9.5 °F 14.0 °F 74% 30.19 in 10.0 mi WNW 11.5 mph - N/A   Scattered Clouds
10:35 PM 21.2 °F 10.1 °F 12.2 °F 68% 30.20 in 10.0 mi WNW 10.4 mph - N/A   Scattered Clouds
10:55 PM 21.2 °F 9.5 °F 12.2 °F 68% 30.21 in 10.0 mi WNW 11.5 mph - N/A   Scattered Clouds
11:15 PM 21.2 °F 9.5 °F 12.2 °F 68% 30.21 in 10.0 mi WNW 11.5 mph - N/A   Scattered Clouds
11:35 PM 23.0 °F 11.7 °F 12.2 °F 63% 30.22 in 10.0 mi WNW 11.5 mph - N/A   Scattered Clouds
11:55 PM 23.0 °F 11.7 °F 12.2 °F 63% 30.22 in 10.0 mi NW 11.5 mph - N/A   Scattered Clouds